Flag Weather past 2 weeks in Gera, Thuringia, Germany

Now
51 °F

Fog.


Feels Like: 51 °F
Forecast: 44 / 60 °F
Wind: 1 mph from Northwest

Location: Gera-Leumnitz

Current Time: Oct 30, 2014 at 4:20:13 PM

Latest Report: Oct 30, 2014 at 3:00 PM


Visibility: 4 mi

Pressure: 30.28 "Hg

Humidity: 86%

Dew point: 47 °F

Location of GeraLocation

Historic Weather in Gera — Graph

°F

Gera temperature yesterday

Maximum temperature yesterday: 52 °F (at 3:00 PM)
Minimum temperature yesterday: 37 °F (at 3:00 AM)
Average temperature yesterday: 43 °F

Past Weeks' High & Low Weather Summary

 TemperatureHumidityPressure
High70 °F (Oct 19, 4:00 PM)98% (Oct 22, 7:00 PM)30.37 "Hg (Oct 22, 7:00 PM)
Low37 °F (Oct 28, 7:00 AM)55% (Oct 15, 4:00 PM)29.50 "Hg (Oct 21, 9:00 PM)
Average50 °F85%30.07 "Hg
* Reported Oct 15 4:00 PM — Oct 30 3:00 PM, Gera, Weather by CustomWeather, © 2014

Note: Actual official high and low records may vary slightly from our data, if they occured in-between our weather recording intervals... More about our weather records

Advertising

Gera weather history for previous 24 hours

 ConditionsComfort  
Time TempWeatherWind HumidityBarometerVisibility
3:00 PM
Oct 30
51 °FFog.1 mph86%30.28 "Hg4 mi
2:00 PM50 °FFog.2 mph87%30.28 "Hg4 mi
1:00 PM49 °FFog.3 mph89%30.27 "Hg3 mi
12:00 PM47 °FFog.3 mph95%30.28 "Hg2 mi
11:00 AM45 °FLow clouds.3 mph97%30.28 "Hg2 mi
10:00 AM44 °FDrizzle. Low clouds.3 mph96%30.28 "Hg2 mi
9:00 AM44 °FFog.3 mph90%30.27 "Hg3 mi
8:00 AM43 °FLow clouds.5 mph92%30.25 "Hg3 mi
7:00 AM43 °FFog.3 mph90%30.24 "Hg4 mi
6:00 AM42 °FFog.3 mph90%30.22 "Hg4 mi
5:00 AM42 °FFog.3 mph92%30.22 "Hg3 mi
4:00 AM42 °FOvercast.3 mph91%30.20 "Hg3 mi
3:00 AM42 °FFog.3 mph90%30.20 "Hg3 mi
2:00 AM41 °FFog.3 mph90%30.19 "Hg3 mi
1:00 AM41 °FFog.2 mph92%30.19 "Hg3 mi
12:00 AM40 °FFog.3 mph93%30.19 "Hg3 mi
11:00 PM
Oct 29
39 °FFog.3 mph94%30.17 "Hg3 mi
10:00 PM39 °FFog.3 mph94%30.17 "Hg3 mi
9:00 PM41 °FFog.2 mph92%30.15 "Hg4 mi
8:00 PM44 °FFog.3 mph86%30.14 "Hg4 mi
7:00 PM44 °FOvercast.3 mph89%30.12 "Hg7 mi
6:00 PM44 °FPassing clouds.5 mph84%30.10 "Hg12 mi
5:00 PM47 °FPassing clouds.1 mph79%30.07 "Hg12 mi
4:00 PM51 °FPassing clouds.3 mph68%30.06 "Hg12 mi
Weather by CustomWeather, © 2014

See weather overviewHow to use our weather pages